| time (UTC) | temp C | wind direction | speed KPH | gust KPH | rain 1hr cm | rain 24hr cm | rain mn cm | humidity % | barometer mb |
| 20260503020111 | 8 | 30 | 9.7 | 0.0 | 0.00 | 0.00 | 0.00 | 61 | 1018.0 |
| 20260503013110 | 11 | 350 | 3.2 | 0.0 | 0.00 | 0.00 | 0.00 | 53 | 1019.0 |
| 20260503012032 | 12 | 350 | 3.2 | 0.0 | 0.00 | 0.00 | 0.00 | 43 | |
| 20260503010239 | 11 | 0 | 3.2 | 0.0 | 0.00 | 0.00 | 0.00 | 50 | 1019.0 |
| 20260503003104 | 12 | 20 | 8.0 | 0.0 | 0.00 | 0.00 | 0.00 | 50 | 1019.0 |
| 20260503002031 | 13 | 10 | 8.0 | 0.0 | 0.00 | 0.00 | 0.00 | 41 | |
| 20260503000105 | 12 | 360 | 4.8 | 0.0 | 0.00 | 0.00 | 0.00 | 50 | 1019.0 |
| 20260502233109 | 13 | 80 | 8.0 | 0.0 | 0.00 | 0.00 | 0.00 | 41 | 1019.0 |
| 20260502232025 | 15 | 90 | 8.0 | 0.0 | 0.00 | 0.00 | 0.00 | 38 | |
| 20260502230104 | 15 | 100 | 8.0 | 0.0 | 0.00 | 0.00 | 0.00 | 38 | 1019.0 |
| 20260502223110 | 15 | 100 | 8.0 | 0.0 | 0.00 | 0.00 | 0.00 | 38 | 1020.0 |
| 20260502222032 | 16 | 100 | 8.0 | 0.0 | 0.00 | 0.00 | 0.00 | 36 | |
| 20260502220239 | 15 | 100 | 8.0 | 0.0 | 0.00 | 0.00 | 0.00 | 38 | 1019.0 |
| 20260502213109 | 17 | 120 | 9.7 | 0.0 | 0.00 | 0.00 | 0.00 | 31 | 1020.0 |
| 20260502212031 | 16 | 130 | 11.3 | 0.0 | 0.00 | 0.00 | 0.00 | 33 | |
| 20260502210111 | 17 | 120 | 9.7 | 0.0 | 0.00 | 0.00 | 0.00 | 29 | 1020.0 |
| 20260502203109 | 17 | 130 | 9.7 | 0.0 | 0.00 | 0.00 | 0.00 | 31 | 1020.0 |
| 20260502202032 | 16 | 130 | 8.0 | 0.0 | 0.00 | 0.00 | 0.00 | 36 | |
| 20260502200104 | 17 | 130 | 8.0 | 0.0 | 0.00 | 0.00 | 0.00 | 31 | 1020.0 |
| 20260502193110 | 17 | 130 | 9.7 | 0.0 | 0.00 | 0.00 | 0.00 | 33 | 1020.0 |
| 20260502192031 | 16 | 140 | 11.3 | 0.0 | 0.00 | 0.00 | 0.00 | 38 | |
| 20260502190105 | 17 | 140 | 9.7 | 0.0 | 0.00 | 0.00 | 0.00 | 33 | 1020.0 |
| 20260502183110 | 17 | 130 | 9.7 | 0.0 | 0.00 | 0.00 | 0.00 | 34 | 1020.0 |
| 20260502182032 | 17 | 130 | 11.3 | 0.0 | 0.00 | 0.00 | 0.00 | 36 | |
| 20260502180112 | 18 | 130 | 9.7 | 0.0 | 0.00 | 0.00 | 0.00 | 32 | 1020.0 |
| 20260502170238 | 22 | 180 | 4.8 | 0.0 | 0.00 | 0.00 | 0.00 | 26 | 1020.0 |
| 20260502163110 | 22 | 0 | 3.2 | 0.0 | 0.00 | 0.00 | 0.00 | 26 | 1020.0 |
| 20260502162031 | 22 | 290 | 8.0 | 0.0 | 0.00 | 0.00 | 0.00 | 28 | |
| 20260502160105 | 22 | 0 | 3.2 | 0.0 | 0.00 | 0.00 | 0.00 | 24 | 1021.0 |
| 20260502151957 | 22 | 190 | 8.0 | 0.0 | 0.00 | 0.00 | 0.00 | 24 | |
| 20260502150111 | 22 | 210 | 8.0 | 0.0 | 0.00 | 0.00 | 0.00 | 24 | 1021.0 |
| 20260502140112 | 22 | 310 | 8.0 | 0.0 | 0.00 | 0.00 | 0.00 | 26 | 1022.0 |
| 20260502130239 | 22 | 200 | 9.7 | 0.0 | 0.00 | 0.00 | 0.00 | 24 | 1022.0 |
| 20260502123109 | 21 | 0 | 4.8 | 0.0 | 0.00 | 0.00 | 0.00 | 26 | 1023.0 |
| 20260502122034 | 22 | 160 | 3.2 | 0.0 | 0.00 | 0.00 | 0.00 | 30 | |
| 20260502120105 | 21 | 0 | 3.2 | 0.0 | 0.00 | 0.00 | 0.00 | 26 | 1023.0 |
| 20260502113110 | 21 | 100 | 11.3 | 0.0 | 0.00 | 0.00 | 0.00 | 26 | 1023.0 |
| 20260502112033 | 20 | 340 | 8.0 | 0.0 | 0.00 | 0.00 | 0.00 | 30 | |
| 20260502110106 | 20 | 10 | 4.8 | 0.0 | 0.00 | 0.00 | 0.00 | 30 | 1024.0 |
| 20260502103109 | 18 | 360 | 8.0 | 0.0 | 0.00 | 0.00 | 0.00 | 34 | 1024.0 |
| 20260502102034 | 18 | 350 | 8.0 | 0.0 | 0.00 | 0.00 | 0.00 | 37 | |
| 20260502100113 | 18 | 0 | 3.2 | 0.0 | 0.00 | 0.00 | 0.00 | 34 | 1024.0 |
| 20260502090241 | 17 | 0 | 1.6 | 0.0 | 0.00 | 0.00 | 0.00 | 34 | 1025.0 |
| 20260502080106 | 17 | 350 | 4.8 | 0.0 | 0.00 | 0.00 | 0.00 | 36 | 1025.0 |
| 20260502070105 | 13 | 0 | 3.2 | 0.0 | 0.00 | 0.00 | 0.00 | 50 | 1025.0 |
| 20260502063110 | 12 | 310 | 4.8 | 0.0 | 0.00 | 0.00 | 0.00 | 62 | 1025.0 |
| 20260502062035 | 12 | 340 | 8.0 | 0.0 | 0.00 | 0.00 | 0.00 | 58 | |
| 20260502060113 | 11 | 350 | 8.0 | 0.0 | 0.00 | 0.00 | 0.00 | 57 | 1025.0 |
| 20260502053109 | 8 | 330 | 8.0 | 0.0 | 0.00 | 0.00 | 0.00 | 66 | 1025.0 |
| 20260502052034 | 7 | 320 | 8.0 | 0.0 | 0.00 | 0.00 | 0.00 | 65 | |
| 20260502050113 | 7 | 320 | 8.0 | 0.0 | 0.00 | 0.00 | 0.00 | 70 | 1025.0 |
| 20260502043110 | 7 | 330 | 8.0 | 0.0 | 0.00 | 0.00 | 0.00 | 70 | 1025.0 |
| 20260502042035 | 7 | 330 | 8.0 | 0.0 | 0.00 | 0.00 | 0.00 | 65 | |
| 20260502040241 | 7 | 330 | 9.7 | 0.0 | 0.00 | 0.00 | 0.00 | 70 | 1025.0 |
| 20260502033104 | 7 | 340 | 12.9 | 0.0 | 0.00 | 0.00 | 0.00 | 65 | 1025.0 |
| 20260502032033 | 7 | 340 | 14.5 | 0.0 | 0.00 | 0.00 | 0.00 | 65 | |
| 20260502030241 | 7 | 340 | 12.9 | 0.0 | 0.00 | 0.00 | 0.00 | 65 | 1025.0 |
| 20260502023109 | 8 | 330 | 12.9 | 0.0 | 0.00 | 0.00 | 0.00 | 61 | 1025.0 |
| 20260502022032 | 10 | 330 | 14.5 | 0.0 | 0.00 | 0.00 | 0.00 | 57 |